Wind_Speed
18 17 17 18 18 20 20 18 23 17 26 24 32 35 35 36 37 40 43 45 47 49 51 52 54 55 56 56 58 58 58 57 57 58 59 62 64 64 66 69 73 75 78 76
18 17 17 19 19 19 20 21 24 25 29 29 35 38 40 43 44 46 48 50 51 52 53 54 55 55 55 56 57 55 56 56 58 58 60 64 65 66 68 72 75 79 78 82
17 16 18 17 17 20 23 24 28 31 31 36 40 42 44 48 50 51 52 53 53 53 53 53 53 54 55 54 53 54 56 58 59 61 62 66 68 69 71 75 76 78 79 84
16 19 21 17 19 23 26 27 31 36 37 42 46 45 49 50 52 52 52 52 51 51 51 52 52 52 51 52 54 57 58 59 57 57 64 70 74 75 76 78 76 77 82 87
19 20 21 20 22 23 27 28 35 36 39 41 45 46 47 52 50 51 52 51 50 50 50 49 48 50 53 56 58 58 56 59 60 63 70 75 76 78 80 75 74 79 86 87
17 18 19 20 21 23 26 30 34 35 38 41 45 47 48 50 52 51 49 49 48 47 46 46 50 53 56 55 56 61 59 65 69 70 74 83 80 79 78 80 78 82 78 82
16 18 20 23 25 27 31 36 38 40 43 45 45 46 45 47 47 46 45 45 43 44 47 51 54 55 53 56 59 61 68 72 76 81 83 85 81 81 77 79 80 81 78 68
21 23 27 28 32 33 36 39 41 43 45 45 45 46 46 44 43 43 42 43 45 48 51 53 53 53 57 60 63 65 63 78 82 87 80 80 78 75 79 80 83 77 69 64
26 29 33 35 36 39 41 42 43 43 43 45 45 44 45 43 42 44 46 48 50 52 51 52 54 56 54 65 71 66 72 77 82 81 78 67 71 72 75 73 71 70 65 59
31 33 36 39 41 43 43 43 42 43 44 44 43 43 43 45 44 46 48 50 50 52 54 57 58 60 63 68 69 81 80 79 82 72 64 72 72 74 73 68 67 62 57 51
36 36 40 41 45 43 42 43 42 43 45 44 43 44 45 47 47 48 49 51 53 56 58 60 63 66 64 68 69 69 79 81 78 81 74 75 74 68 69 61 57 55 51 46
39 41 40 42 42 40 42 43 44 44 45 45 45 46 47 46 48 52 54 56 57 59 64 65 64 62 66 72 75 79 80 82 79 79 78 71 69 62 61 53 52 50 49 43
41 41 41 41 42 44 44 44 44 45 46 46 46 45 48 51 53 54 57 60 62 63 61 55 60 62 62 67 72 78 79 84 79 73 68 66 61 55 51 50 49 47 45 38
37 39 42 42 45 45 45 45 46 46 46 45 46 49 52 54 57 60 62 62 62 61 60 62 61 61 64 67 71 76 78 70 66 65 64 60 56 53 51 49 49 45 42 35
39 40 43 45 45 45 46 46 45 45 46 48 51 54 58 61 64 66 64 61 59 57 57 59 61 63 66 68 70 65 61 60 66 69 67 61 55 51 50 50 48 44 40 34
43 43 43 44 45 45 45 46 46 48 50 54 57 61 64 66 65 60 57 57 59 60 59 60 63 68 70 63 61 62 62 62 68 70 63 58 55 52 49 49 46 43 38 33
44 46 45 45 45 45 44 46 49 53 56 60 63 63 61 58 56 55 57 59 61 60 60 62 65 65 60 58 62 62 63 68 72 69 61 57 52 50 48 46 43 41 38 33
43 43 43 42 43 45 48 52 55 58 61 62 61 57 54 54 55 56 58 59 59 59 58 58 57 59 60 61 65 67 69 73 73 66 60 57 54 50 47 45 42 40 37 34
42 42 43 45 48 51 54 57 59 60 58 54 51 52 54 56 58 59 60 59 56 55 57 57 59 61 67 69 68 71 75 74 68 62 59 56 53 50 46 43 40 38 36 33
43 45 47 50 52 54 57 58 55 50 48 50 52 56 58 60 60 59 56 56 57 59 60 61 66 69 67 69 74 77 77 70 63 57 52 49 47 45 43 41 39 37 36 33
47 49 52 53 57 57 53 48 47 49 52 55 57 59 60 60 58 56 55 56 59 62 65 66 66 69 73 77 81 79 73 65 62 58 55 51 48 44 42 40 38 37 35 33
52 54 56 56 53 49 47 49 51 55 57 59 61 62 61 57 55 56 58 60 61 64 66 69 72 77 81 82 77 70 67 65 61 58 55 52 49 46 42 40 38 37 35 33
56 56 54 50 47 49 51 54 57 59 61 61 61 60 58 57 57 58 59 62 64 66 71 76 81 83 80 73 68 64 59 57 56 54 52 49 47 45 43 41 39 38 36 35
53 49 48 49 52 54 56 59 61 62 62 60 59 59 57 57 58 62 64 65 70 74 80 82 79 74 69 64 60 56 53 51 50 49 48 46 44 44 43 42 40 39 38 37
48 50 52 55 57 59 61 61 61 60 57 58 58 57 58 61 62 64 67 72 77 81 80 76 69 63 59 55 53 50 48 46 45 45 45 44 41 41 42 41 41 40 39 39
53 55 58 59 60 60 59 58 56 55 56 57 58 59 61 64 66 70 74 78 80 78 71 65 60 57 54 52 50 48 47 46 45 44 43 43 43 41 41 40 40 40 40 40
58 60 60 59 57 54 53 52 54 57 57 58 60 62 64 67 71 75 78 77 72 66 61 59 57 54 53 52 51 51 50 49 48 46 46 46 44 43 42 40 39 39 39 39
Wind_Direction
235 238 235 235 237 239 245 250 254 254 264 268 276 283 288 289 290 293 295 296 296 297 297 298 299 300 301 303 303 304 305 305 306 307 308 309 310 310 309 309 310 312 312 319
235 238 238 241 242 248 256 261 265 265 268 274 276 283 286 290 292 294 294 295 296 297 298 299 300 302 302 302 303 304 304 304 305 308 310 311 310 309 310 310 311 311 312 316
236 244 249 251 253 256 259 263 268 270 275 275 280 281 287 289 291 293 295 297 298 299 300 301 301 301 302 303 304 304 304 305 308 308 308 310 310 310 310 310 309 309 311 318
240 247 255 259 256 258 266 270 272 274 276 279 284 287 289 292 292 295 296 297 299 300 299 299 301 302 303 303 304 303 305 307 307 304 307 308 309 308 308 307 306 308 313 324
251 256 266 270 268 269 270 272 273 277 279 283 285 288 290 289 293 294 296 297 298 298 300 300 301 303 304 304 305 306 307 309 308 306 302 301 304 306 306 303 304 311 315 328
261 264 268 271 273 274 276 278 279 283 285 287 287 288 289 293 294 296 297 298 298 299 299 302 303 305 304 305 309 298 304 307 308 303 298 296 295 301 301 300 305 311 328 330
271 276 279 283 283 283 282 285 290 291 291 291 291 291 293 292 293 296 297 297 299 299 301 302 303 304 304 306 307 311 305 302 304 304 300 294 293 297 299 303 313 323 330 328
280 285 285 286 287 289 293 293 294 293 293 293 293 294 293 296 298 298 298 300 300 300 301 303 304 306 306 310 309 308 304 286 294 293 292 290 292 299 305 312 317 328 330 325
284 285 287 290 296 298 297 295 293 293 294 293 295 296 296 298 299 300 300 301 302 304 305 306 307 307 305 302 303 300 292 287 282 289 287 292 300 306 315 324 327 328 325 320
284 286 291 295 295 293 294 294 294 294 293 293 294 296 296 297 298 298 300 303 305 306 306 306 306 307 305 307 306 295 283 280 283 285 294 303 311 320 326 328 327 323 320 318
286 287 290 290 291 294 292 291 291 292 292 293 295 296 297 299 301 302 304 303 303 303 304 305 305 304 305 295 294 291 289 283 287 288 298 309 319 327 327 325 323 319 317 318
287 288 287 287 289 288 288 290 291 293 294 297 298 298 299 300 301 302 303 304 305 305 305 304 304 302 296 288 286 286 289 289 291 300 313 322 324 324 323 320 319 319 317 315
285 287 288 287 288 289 290 291 294 295 296 298 298 298 300 303 303 303 304 305 305 303 305 300 302 298 298 296 299 297 295 296 306 315 323 323 322 320 319 318 320 316 313 312
283 283 284 286 289 290 293 296 297 298 300 301 301 301 301 302 302 303 304 304 303 302 301 299 299 299 300 299 297 296 300 310 317 322 322 321 320 319 315 316 318 315 313 311
280 281 284 287 290 291 293 296 297 298 299 299 299 300 301 302 302 303 304 303 303 303 302 302 301 300 298 296 299 308 314 320 324 325 322 319 316 314 314 314 316 313 310 307
280 283 285 287 288 290 293 295 295 297 298 299 299 300 301 302 303 303 303 303 304 305 305 304 300 296 301 310 313 315 317 318 321 321 317 315 313 313 312 311 312 311 307 301
285 288 288 288 290 292 293 294 295 295 296 298 300 302 302 302 301 302 304 305 307 306 302 300 302 304 307 309 311 314 313 315 318 318 314 312 310 310 309 309 308 308 303 294
285 286 286 288 290 290 290 292 294 298 300 301 302 301 302 304 305 306 307 307 305 306 307 310 307 306 307 309 310 311 314 315 316 313 307 305 304 304 305 305 304 303 300 291
282 282 284 286 288 291 294 296 297 298 298 299 300 303 305 307 308 308 308 309 308 307 304 303 304 306 308 309 309 310 313 314 312 308 306 304 303 301 300 300 300 300 299 289
282 284 286 289 292 293 294 295 297 298 300 302 305 308 309 309 309 309 309 306 302 302 303 305 307 308 307 308 310 311 312 310 308 307 306 305 304 301 297 296 297 297 295 287
285 287 290 292 293 295 295 297 299 302 304 307 308 308 308 309 308 306 303 302 301 302 305 307 306 307 308 309 310 310 308 305 302 300 299 298 299 299 296 293 293 293 293 287
289 291 293 294 295 296 297 299 302 304 306 307 307 308 308 306 305 303 303 304 305 305 306 306 307 308 308 309 307 304 302 301 300 297 295 293 291 291 291 290 288 289 289 285
293 293 294 295 295 296 299 301 303 304 305 306 306 306 306 305 304 304 304 304 305 306 307 308 308 308 307 306 305 302 300 297 296 295 294 291 288 285 284 283 283 283 283 281
291 292 292 294 296 298 299 301 302 303 303 304 304 305 304 303 304 304 306 307 309 309 309 310 309 308 308 307 305 303 300 297 296 295 293 291 287 284 281 279 278 277 277 276
290 291 293 294 295 297 298 300 300 301 302 302 303 303 303 304 305 307 307 308 310 311 311 310 310 310 310 309 308 306 303 300 297 295 293 292 290 286 282 279 276 274 273 271
290 291 292 293 295 297 297 298 299 299 300 300 301 302 303 305 306 308 309 311 312 312 311 312 312 312 311 310 309 307 304 301 299 295 293 291 289 285 282 279 276 273 271 270
289 290 292 293 294 295 297 298 298 299 301 301 302 305 306 307 309 310 312 312 312 313 313 314 314 313 312 311 309 306 303 299 296 293 290 288 284 282 280 279 277 275 272 270
Height
5746 5747 5749 5750 5751 5753 5754 5756 5755 5759 5755 5755 5750 5748 5747 5745 5743 5740 5736 5732 5727 5722 5717 5712 5706 5700 5694 5688 5682 5675 5668 5661 5654 5647 5639 5630 5621 5612 5603 5595 5585 5575 5564 5551
5742 5744 5745 5746 5748 5749 5750 5751 5750 5750 5749 5748 5744 5741 5739 5736 5734 5731 5726 5722 5716 5711 5705 5700 5694 5689 5683 5677 5670 5663 5656 5649 5642 5633 5625 5616 5607 5598 5589 5580 5570 5560 5549 5536
5739 5740 5740 5743 5745 5745 5745 5745 5744 5742 5743 5739 5735 5733 5731 5727 5722 5719 5715 5710 5704 5699 5694 5688 5682 5678 5671 5665 5658 5651 5644 5636 5628 5620 5613 5604 5594 5584 5574 5564 5554 5543 5531 5520
5735 5736 5736 5740 5740 5739 5739 5739 5736 5734 5733 5730 5725 5725 5720 5716 5712 5708 5703 5698 5693 5688 5682 5676 5671 5665 5659 5652 5646 5639 5631 5624 5616 5608 5599 5589 5579 5569 5559 5549 5538 5526 5515 5505
5730 5731 5733 5733 5733 5734 5732 5733 5726 5726 5724 5722 5717 5714 5710 5704 5702 5696 5691 5686 5681 5675 5670 5664 5658 5652 5647 5640 5632 5625 5618 5610 5602 5593 5584 5574 5563 5553 5543 5533 5521 5510 5500 5486
5726 5726 5726 5726 5727 5726 5725 5723 5719 5719 5716 5712 5708 5704 5699 5693 5688 5683 5679 5674 5669 5664 5658 5653 5647 5641 5634 5626 5620 5613 5604 5596 5588 5580 5570 5559 5548 5537 5527 5516 5506 5496 5484 5472
5720 5720 5721 5720 5719 5718 5717 5717 5711 5708 5704 5700 5697 5692 5688 5682 5676 5673 5668 5663 5659 5653 5648 5642 5635 5628 5621 5614 5606 5597 5587 5579 5572 5563 5552 5541 5531 5521 5512 5502 5492 5482 5471 5458
5715 5714 5713 5713 5711 5711 5708 5704 5700 5697 5692 5688 5683 5679 5675 5672 5667 5661 5657 5653 5648 5642 5636 5629 5622 5615 5607 5600 5593 5584 5576 5568 5558 5545 5535 5525 5515 5508 5498 5487 5478 5466 5456 5444
5709 5707 5703 5702 5701 5698 5696 5693 5689 5685 5681 5676 5673 5668 5663 5660 5656 5651 5645 5640 5635 5628 5623 5616 5609 5602 5596 5589 5579 5569 5558 5549 5538 5528 5518 5508 5501 5491 5481 5471 5462 5451 5442 5433
5700 5698 5695 5692 5690 5687 5684 5681 5678 5674 5670 5666 5662 5657 5652 5647 5645 5639 5633 5628 5623 5617 5610 5603 5596 5588 5581 5573 5562 5553 5542 5532 5523 5513 5504 5496 5486 5476 5466 5457 5448 5439 5431 5422
5690 5689 5686 5683 5679 5678 5674 5670 5667 5663 5658 5655 5651 5646 5641 5636 5632 5626 5621 5616 5610 5603 5596 5589 5582 5574 5565 5556 5547 5537 5528 5517 5508 5500 5490 5481 5472 5462 5454 5444 5437 5428 5420 5412
5679 5677 5675 5672 5669 5667 5663 5660 5656 5651 5647 5643 5639 5634 5629 5625 5620 5614 5609 5603 5596 5589 5582 5574 5567 5560 5551 5541 5531 5520 5512 5503 5494 5486 5476 5466 5459 5451 5443 5435 5426 5417 5409 5402
5669 5666 5663 5660 5658 5654 5651 5648 5645 5641 5637 5633 5628 5623 5619 5613 5608 5601 5595 5588 5582 5574 5566 5556 5549 5544 5536 5528 5519 5510 5501 5491 5481 5472 5462 5454 5445 5436 5431 5424 5417 5410 5401 5394
5659 5655 5652 5649 5645 5642 5639 5636 5633 5629 5625 5621 5617 5612 5606 5600 5593 5586 5580 5573 5565 5558 5551 5544 5536 5528 5520 5513 5505 5496 5486 5476 5468 5459 5450 5441 5431 5425 5418 5412 5405 5398 5392 5386
5647 5645 5641 5638 5634 5631 5628 5624 5621 5617 5613 5608 5603 5597 5591 5585 5578 5571 5563 5555 5549 5542 5535 5528 5520 5513 5504 5496 5487 5479 5471 5462 5452 5444 5436 5428 5421 5414 5407 5400 5394 5387 5381 5377
5636 5633 5630 5627 5624 5620 5616 5613 5608 5604 5599 5594 5589 5583 5576 5569 5561 5554 5547 5540 5533 5526 5520 5513 5505 5496 5487 5478 5470 5463 5456 5449 5442 5433 5424 5415 5408 5401 5395 5389 5383 5377 5372 5368
5623 5620 5617 5614 5611 5608 5604 5600 5596 5591 5586 5580 5573 5566 5559 5552 5546 5539 5533 5526 5519 5510 5503 5497 5489 5480 5472 5464 5457 5449 5442 5434 5425 5418 5409 5402 5395 5388 5382 5377 5372 5367 5362 5358
5612 5608 5605 5602 5599 5596 5592 5587 5582 5576 5570 5564 5557 5551 5544 5538 5532 5525 5517 5509 5502 5495 5486 5480 5473 5466 5458 5450 5442 5435 5427 5418 5409 5401 5393 5386 5381 5376 5370 5365 5360 5355 5351 5348
5600 5598 5595 5591 5588 5583 5578 5572 5567 5561 5555 5548 5542 5536 5530 5523 5516 5508 5500 5492 5484 5479 5472 5466 5458 5450 5442 5434 5426 5417 5409 5400 5392 5384 5377 5371 5365 5360 5356 5352 5348 5344 5340 5337
5589 5586 5582 5578 5573 5568 5562 5557 5551 5545 5540 5534 5528 5521 5512 5506 5499 5491 5484 5478 5469 5462 5456 5449 5441 5433 5425 5416 5407 5398 5390 5381 5374 5367 5362 5356 5351 5347 5343 5339 5336 5332 5329 5326
5575 5572 5568 5563 5557 5552 5546 5541 5535 5530 5524 5517 5511 5504 5497 5489 5481 5475 5469 5463 5455 5447 5440 5432 5423 5415 5406 5397 5386 5376 5370 5363 5356 5350 5345 5341 5337 5333 5329 5326 5323 5320 5317 5315
5560 5556 5551 5546 5541 5535 5530 5525 5519 5513 5507 5501 5494 5487 5480 5474 5467 5460 5452 5445 5439 5430 5423 5415 5405 5397 5385 5375 5366 5357 5349 5341 5335 5330 5327 5323 5320 5318 5315 5312 5310 5307 5305 5303
5542 5538 5533 5529 5525 5520 5515 5510 5504 5497 5491 5484 5477 5471 5465 5458 5451 5444 5439 5430 5421 5413 5404 5396 5385 5374 5363 5353 5344 5336 5329 5322 5316 5311 5308 5305 5302 5301 5299 5297 5295 5293 5292 5290
5528 5524 5520 5515 5510 5505 5500 5494 5488 5482 5475 5468 5461 5455 5449 5443 5436 5427 5419 5411 5403 5394 5383 5373 5362 5350 5340 5331 5323 5316 5310 5304 5299 5295 5290 5288 5286 5283 5282 5281 5280 5279 5278 5277
5513 5509 5504 5500 5495 5489 5484 5478 5471 5466 5459 5453 5446 5440 5433 5425 5419 5411 5402 5394 5384 5374 5363 5351 5341 5330 5322 5314 5306 5299 5293 5288 5284 5279 5276 5272 5270 5268 5266 5265 5264 5264 5263 5262
5499 5495 5490 5485 5479 5474 5468 5462 5456 5450 5445 5438 5431 5425 5418 5410 5402 5394 5385 5375 5364 5353 5342 5332 5323 5314 5306 5298 5291 5285 5279 5274 5269 5265 5261 5257 5255 5253 5251 5249 5248 5248 5248 5247
5484 5479 5474 5469 5463 5458 5453 5447 5441 5435 5429 5423 5416 5409 5402 5394 5385 5376 5365 5354 5344 5333 5324 5315 5307 5299 5291 5283 5276 5269 5263 5258 5253 5248 5244 5241 5239 5237 5235 5234 5233 5233 5232 5232